This is the latest recevied weather packets stored in our database for station/object WB0VGI-1. If no packets are shown the sender has not sent any weather packets the latest 10 day(s).
| Time | Temp. | Humidity | Pressure | Rain* | Wind** | Luminosity | Snow |
|---|---|---|---|---|---|---|---|
| 1778374025 | 12.78° C | 40% | 1015.3 hPa | 0 mm | - | - | - |
| 1778372825 | 12.78° C | 38% | 1015 hPa | 0 mm | - | - | - |
| 1778371625 | 13.89° C | 36% | 1014.6 hPa | 0 mm | - | - | - |
| 1778370425 | 13.89° C | 36% | 1014.4 hPa | 0 mm | - | - | - |
| 1778369225 | 15° C | 35% | 1014.1 hPa | 0 mm | - | - | - |
| 1778368025 | 15° C | 34% | 1014 hPa | 0 mm | - | - | - |
| 1778366825 | 14.44° C | 36% | 1013.9 hPa | 0 mm | - | - | - |
| 1778365625 | 15° C | 36% | 1013.6 hPa | 0 mm | - | - | - |
| 1778364425 | 15° C | 36% | 1013.5 hPa | 0 mm | - | - | - |
| 1778363225 | 15° C | 34% | 1013.5 hPa | 0 mm | - | - | - |
| 1778362025 | 15° C | 34% | 1013.3 hPa | 0 mm | - | - | - |
| 1778360825 | 15° C | 36% | 1013 hPa | 0 mm | - | - | - |
| 1778359625 | 15° C | 35% | 1013.2 hPa | 0 mm | - | - | - |
| 1778358425 | 15° C | 38% | 1013.2 hPa | 0 mm | - | - | - |
| 1778357225 | 14.44° C | 38% | 1013.1 hPa | 0 mm | - | - | - |
| 1778356025 | 14.44° C | 40% | 1013 hPa | 0 mm | - | - | - |
| 1778354825 | 14.44° C | 40% | 1012.7 hPa | 0 mm | - | - | - |
| 1778353626 | 13.89° C | 40% | 1012.7 hPa | 0 mm | - | - | - |
| 1778352426 | 13.89° C | 40% | 1012.6 hPa | 0 mm | - | - | - |
| 1778351226 | 13.33° C | 40% | 1012.4 hPa | 0 mm | - | - | - |
| 1778350026 | 13.33° C | 40% | 1012.3 hPa | 0 mm | - | - | - |
| 1778348826 | 13.33° C | 40% | 1012 hPa | 0 mm | - | - | - |
| 1778347626 | 12.78° C | 41% | 1012 hPa | 1.02 mm | - | - | - |
| 1778346426 | 12.78° C | 46% | 1011.9 hPa | 0 mm | - | - | - |
| 1778345226 | 11.67° C | 43% | 1011.7 hPa | 0 mm | - | - | - |
* Rain latest hour (hover to see other rain measurements)
** Current wind speed in m/s (hover to see current wind gust speed)